Rexburg, ID

7:05 AM MDT on August 29, 2016 (GMT -0600)
Rexburg-Madison County

Weather History for KRXE - October, 2012

Change the Weather History Date:

Tuesday, October 2, 2012

  Actual Average Record
Temperature  
Mean Temperature 58 °F 50 °F  
Max Temperature 79 °F 64 °F 85 °F (2010)
Min Temperature 36 °F 35 °F 25 °F (2009)
Degree Days  
Heating Degree Days 7 15  
Month to date heating degree days 15 30  
Since 1 July heating degree days 191 388  
Cooling Degree Days 0 0  
Month to date cooling degree days 0 0  
Year to date cooling degree days 419 208  
Growing Degree Days 7 (Base 50)    
Moisture  
Dew Point 30 °F    
Average Humidity 44    
Maximum Humidity 76    
Minimum Humidity 12    
Precipitation  
Precipitation 0.00 in 0.03 in 0.64 in (2015)
Month to date precipitation 0.00 0.07  
Year to date precipitation 6.64 9.95  
Sea Level Pressure  
Sea Level Pressure 29.90 in    
Wind  
Wind Speed 11 mph (SSW)    
Max Wind Speed 26 mph    
Max Gust Speed 33 mph    
Visibility 10 miles    
Events      
T = Trace of Precipitation, MM = Missing Value Source: NWS Daily Summary

Daily Weather History Graph

Daily Weather History Graph

Search for Another Location

Airport or City:

Trip Planner

Search our weather history database for the weather conditions in past years. The results will help you decide how hot, cold, wet, or windy it might be!

Date:

Astronomy

Oct. 02, 2012 Rise Set
Actual Time 7:26 AM MDT 7:05 PM MDT
Civil Twilight 6:57 AM MDT 7:33 PM MDT
Nautical Twilight 6:24 AM MDT 8:07 PM MDT
Astronomical Twilight 5:50 AM MDT 8:40 PM MDT
Moon 8:13 PM MDT (10/2) 10:03 AM MDT (10/2)
Length of Visible Light 12h 35m
Length of Day
11h 38m
Waning Gibbous, 94% of the Moon is Illuminated
Oct 2
Waning Gibbous
Oct 8
Last Quarter
Oct 15
New
Oct 21
First Quarter
Oct 29
Full

Hourly Weather History & Observations

Time (MDT) Temp. Windchill Dew Point Humidity Pressure Visibility Wind Dir Wind Speed Gust Speed Precip Events Conditions
12:53 AM 57.9 °F - 32.0 °F 37% 30.01 in 10.0 mi South 9.2 mph - N/A   Clear
2:53 AM 50.0 °F - 32.0 °F 50% 30.00 in 10.0 mi South 5.8 mph - N/A   Clear
3:53 AM 51.1 °F - 30.9 °F 46% 29.98 in 10.0 mi SSW 6.9 mph - N/A   Clear
4:53 AM 41.0 °F - 32.0 °F 70% 30.01 in 10.0 mi Calm Calm - N/A   Clear
5:53 AM 39.9 °F - 32.0 °F 73% 30.01 in 10.0 mi Calm Calm - N/A   Clear
6:53 AM 39.0 °F 35.7 °F 32.0 °F 76% 30.02 in 10.0 mi NE 4.6 mph - N/A   Clear
7:53 AM 37.0 °F - 30.9 °F 79% 30.04 in 10.0 mi Calm Calm - N/A   Clear
8:53 AM 43.0 °F 41.3 °F 33.1 °F 68% 30.03 in 10.0 mi NE 3.5 mph - N/A   Clear
9:53 AM 53.1 °F - 35.1 °F 50% 30.01 in 10.0 mi Calm Calm - N/A   Clear
10:53 AM 61.0 °F - 33.1 °F 35% 29.98 in 10.0 mi SW 12.7 mph 18.4 mph N/A   Clear
11:53 AM 64.9 °F - 32.0 °F 29% 29.94 in 10.0 mi SSW 16.1 mph - N/A   Clear
12:53 PM 68.0 °F - 32.0 °F 26% 29.91 in 10.0 mi SSW 17.3 mph - N/A   Clear
1:53 PM 73.0 °F - 32.0 °F 22% 29.87 in 10.0 mi SSW 15.0 mph 24.2 mph N/A   Clear
2:53 PM 75.0 °F - 32.0 °F 21% 29.83 in 10.0 mi SSW 20.7 mph 27.6 mph N/A   Clear
3:53 PM 77.0 °F - 23.0 °F 13% 29.80 in 10.0 mi SSW 20.7 mph 27.6 mph N/A   Clear
4:53 PM 77.0 °F - 21.9 °F 13% 29.80 in 10.0 mi SW 19.6 mph 28.8 mph N/A   Clear
5:53 PM 75.0 °F - 23.0 °F 14% 29.79 in 10.0 mi SW 16.1 mph 28.8 mph N/A   Clear
6:53 PM 70.0 °F - 26.1 °F 19% 29.79 in 10.0 mi SW 16.1 mph 23.0 mph N/A   Clear
7:53 PM 66.9 °F - 27.0 °F 22% 29.80 in 10.0 mi SSW 13.8 mph 23.0 mph N/A   Clear
8:53 PM 64.9 °F - 26.1 °F 23% 29.81 in 10.0 mi SSW 13.8 mph 21.9 mph N/A   Clear
9:53 PM 60.1 °F - 28.0 °F 30% 29.79 in 10.0 mi SSW 8.1 mph - N/A   Clear
10:53 PM 57.9 °F - 28.9 °F 33% 29.77 in 10.0 mi SSW 13.8 mph - N/A   Clear
11:53 PM 55.9 °F - 30.0 °F 37% 29.78 in 10.0 mi SSW 11.5 mph - N/A   Clear